[[{"header":{"parameterUnit":"m.s-1","parameterCategory":1,"la1":30.2991,"la2":30.254,"lo1":-89.0895,"lo2":-89.0444,"dy":0.0017,"dx":0.0017,"nx":28,"ny":28,"refTime":"2024-06-10T03:00:00:Z","depth":0,"parameterNumber":2,"parameterNumberName":"U-component_of_WINDS"},"data":[0,0,0,0,0,0,0,0,0,0,0,0,0,0,0,0,0,0,0,0,0,0,0,0,0,0,0,0,0,0,0,0,0,0,0,0,0,0,0,0,0,0,0,0,0,0,0,0,0,0,0,0,0,0,0,0,0,0,2.4067,2.4069,0,2.4199,2.4201,2.4202,2.4233,2.4232,2.4232,2.4231,2.4363,2.4368,2.4372,0,0,0,0,0,0,0,0,0,0,0,0,0,2.3839,2.3843,2.4067,2.4069,2.4071,2.4199,2.4201,2.4203,2.4233,2.4232,2.4231,2.423,2.4362,2.4367,2.4372,0,0,0,0,0,0,0,0,0,0,0,0,0,2.3951,2.3844,2.4067,2.4101,2.4106,2.4199,2.4201,2.4203,2.4234,2.4232,2.4231,2.423,2.436,2.4367,2.4373,2.444,0,0,2.4393,2.4396,0,0,0,0,0,0,0,0,2.3945,2.3959,2.4095,2.4099,2.4104,2.4199,2.4169,2.4283,2.4234,2.4185,2.4231,2.4229,2.4309,2.432,2.4348,2.4446,2.4452,2.4394,2.4398,2.44,2.4402,0,0,0,0,0,0,0,2.3937,2.3954,2.412,2.4097,2.4103,2.4109,2.4124,2.4191,2.4253,2.4189,2.4192,2.4207,2.4312,2.4341,2.4351,2.4454,2.4393,2.4399,2.4403,2.4406,2.4613,2.4615,0,0,0,0,0,0,2.3923,2.3947,2.4115,2.4123,2.402,2.4115,2.4131,2.417,2.4252,2.4264,2.4208,2.4208,2.4331,2.4343,2.4356,2.4439,2.44,2.4406,2.441,2.4612,2.4614,2.4616,0,0,0,0,0,0,2.3918,2.3938,2.411,2.4036,2.4059,2.412,2.4163,2.4173,2.4203,2.4267,2.4278,2.4227,2.433,2.4347,2.4419,2.4444,2.4409,2.4415,2.461,2.4613,2.4615,2.4606,0,0,0,0,0,0,2.3912,2.3936,2.3963,2.4037,2.4062,2.4172,2.4165,2.4177,2.4214,2.4215,2.4287,2.4298,2.433,2.4409,2.4425,2.4452,2.442,2.4608,2.4611,2.4614,2.4604,2.4608,2.4611,0,0,0,0,0,2.3904,2.3955,2.3964,2.3984,2.4097,2.4173,2.4188,2.4225,2.4216,2.4243,2.4284,2.4296,2.4439,2.4416,2.4435,2.4464,2.4607,2.461,2.4614,2.4603,2.4607,2.4611,0,0,0,0,0,0,2.3882,2.3965,2.3976,2.4053,2.4106,2.4178,2.4213,2.4228,2.4284,2.4282,2.4325,2.4341,2.441,2.4445,2.4418,2.4533,2.4522,2.453,2.4508,2.4512,2.4516,2.4505,2.4426,0,0,0,0,0,2.3886,2.3941,2.4011,2.4072,2.4098,2.4151,2.4186,2.421,2.4265,2.4287,2.4334,2.4387,2.4444,2.448,2.4536,2.461,2.4625,2.4639,2.4643,2.4645,2.465,2.4691,2.4697,2.4627,2.4627,2.4627,0,0,2.3895,2.3948,2.398,2.4069,2.4113,2.4168,2.417,2.4228,2.4269,2.4296,2.4367,2.4403,2.4465,2.4538,2.4573,2.4569,2.4674,2.465,2.4651,2.4655,2.4695,2.4702,2.4707,2.463,2.4629,2.4629,0,0,2.3939,2.3985,2.4041,2.4085,2.4151,2.4186,2.4199,2.427,2.4295,2.4367,2.4388,2.4437,2.4535,2.4578,2.4612,2.4673,2.4686,2.469,2.4707,2.4746,2.4751,2.4756,2.4776,2.4783,2.4696,2.4696,2.4696,0,2.3942,2.4027,2.4067,2.4125,2.4163,2.4191,2.4247,2.4288,2.4368,2.4393,2.4389,2.4511,2.4555,2.4638,2.4652,2.468,2.4695,2.4682,2.4747,2.4753,2.4758,2.4778,2.4785,2.4696,2.4696,2.4696,2.4696,0,2.4026,2.4085,2.4122,2.42,2.4242,2.4299,2.4346,2.4385,2.4405,2.444,2.4513,2.4566,2.4633,2.4655,2.4675,2.4741,2.4736,2.4739,2.4729,2.4764,2.4783,2.4791,2.4696,2.4696,2.4696,2.4696,0,0,2.4059,2.4159,2.4172,2.4208,2.4283,2.4329,2.4386,2.4452,2.4484,2.4539,2.4587,2.4669,2.4672,2.4711,2.4736,2.4771,2.4814,2.4769,2.4771,2.4774,2.4887,2.4883,2.4892,2.4823,2.4825,2.4826,2.4881,0,2.4112,2.4216,2.4254,2.4339,2.4393,2.4421,2.4471,2.4522,2.4556,2.4606,2.4644,2.4701,2.4701,2.4725,2.476,2.4801,2.4837,2.4798,2.4867,2.4869,2.4849,2.4902,2.4899,2.4948,2.4889,2.4891,2.4892,0,2.4186,2.4243,2.4334,2.4402,2.4426,2.4471,2.4534,2.4582,2.464,2.4663,2.4707,2.473,2.479,2.4778,2.486,2.4832,2.4863,2.4887,2.489,2.4897,2.4881,2.4908,2.4965,2.4972,2.4904,2.4903,2.4902,0,2.4199,2.4298,2.4365,2.4395,2.4477,2.4507,2.4543,2.46,2.4637,2.4692,2.4717,2.4778,2.4811,2.4858,2.4896,2.4884,2.4975,2.4966,2.4994,2.4993,2.501,2.5008,2.5071,2.5033,2.5033,2.5032,2.5032,0,2.4253,2.4307,2.4372,2.4413,2.4474,2.4517,2.4576,2.4613,2.4664,2.4712,2.4739,2.4783,2.4833,2.4883,2.4914,2.4976,2.4991,2.501,2.5017,2.5007,2.5004,2.5026,2.5023,2.5034,2.5034,2.5034,2.5033,0,2.4277,2.4323,2.4398,2.447,2.4489,2.4531,2.4592,2.4632,2.4668,2.4728,2.4744,2.4801,2.4861,2.4905,2.4983,2.5003,2.507,2.5078,2.505,2.5054,2.5079,2.5075,2.5157,2.5169,2.5123,2.5124,2.5124,0,2.4307,2.435,2.4426,2.4461,2.4497,2.4552,2.459,2.4634,2.4673,2.4742,2.4774,2.4836,2.4889,2.4984,2.503,2.509,2.5098,2.5123,2.5107,2.5095,2.5097,2.5093,2.5097,2.5124,2.5125,2.5125,2.5125,0,2.4356,2.4377,2.4432,2.4495,2.454,2.4591,2.4643,2.4669,2.4722,2.4764,2.4827,2.4867,2.4947,2.5008,2.5072,2.5107,2.5125,2.513,2.5139,2.5128,2.511,2.5119,2.5055,2.5128,2.5127,2.5127,2.5127,2.5127,2.4383,2.4422,2.4482,2.4542,2.4585,2.4633,2.4674,2.4716,2.4769,2.4838,2.4861,2.4925,2.4982,2.507,2.5106,2.5156,2.5155,2.5169,2.5172,2.5175,2.5173,2.5103,2.5168,2.5168,2.5168,2.5168,2.5168,0,2.4431,2.4472,2.4527,2.4599,2.4645,2.466,2.4717,2.4755,2.4812,2.4864,2.4915,2.4986,2.5046,2.5098,2.5159,2.5189,2.5199,2.5204,2.5201,2.5209,2.5171,2.5156,2.5195,2.5195,2.5195,2.5195,2.5195,2.5195,2.4462,2.4528,2.4556,2.4643,2.4683,2.4747,2.4779,2.4823,2.4864,2.4943,2.4993,2.5027,2.5079,2.5144,2.5199,2.5213,2.5233,2.5236,2.5251,2.5215,2.5212,2.5208,2.5194,2.5241,2.5241,2.5285,2.5285,2.5285]},{"header":{"parameterUnit":"m.s-1","parameterCategory":1,"la1":30.2991,"la2":30.254,"lo1":-89.0895,"lo2":-89.0444,"dy":0.0017,"dx":0.0017,"nx":28,"ny":28,"refTime":"2024-06-10T03:00:00:Z","depth":0,"parameterNumber":3,"parameterNumberName":"V-component_of_WINDS"},"data":[0,0,0,0,0,0,0,0,0,0,0,0,0,0,0,0,0,0,0,0,0,0,0,0,0,0,0,0,0,0,0,0,0,0,0,0,0,0,0,0,0,0,0,0,0,0,0,0,0,0,0,0,0,0,0,0,0,0,4.9123,4.9123,0,4.9117,4.9117,4.9117,4.9071,4.907,4.9069,4.9068,4.9063,4.9064,4.9064,0,0,0,0,0,0,0,0,0,0,0,0,0,4.9095,4.9096,4.9123,4.9123,4.9123,4.9117,4.9117,4.9117,4.9072,4.907,4.9069,4.9068,4.9062,4.9063,4.9064,0,0,0,0,0,0,0,0,0,0,0,0,0,4.91,4.9096,4.9123,4.91,4.9098,4.9118,4.9117,4.9117,4.9072,4.907,4.9069,4.9067,4.9062,4.9063,4.9065,4.9107,0,0,4.9069,4.9069,0,0,0,0,0,0,0,0,4.91,4.9101,4.9103,4.9101,4.9099,4.9093,4.9105,4.9114,4.9072,4.9082,4.9068,4.9066,4.9074,4.9075,4.9077,4.9107,4.9107,4.9069,4.907,4.907,4.9071,0,0,0,0,0,0,0,4.91,4.9101,4.9121,4.9103,4.9101,4.9089,4.9088,4.9107,4.9088,4.9081,4.9077,4.9077,4.9073,4.9076,4.9077,4.9107,4.9069,4.907,4.9071,4.9071,4.9169,4.9171,0,0,0,0,0,0,4.9103,4.9101,4.9121,4.9121,4.9095,4.9091,4.909,4.9097,4.9087,4.9084,4.9079,4.9075,4.9074,4.9075,4.9076,4.9124,4.907,4.9072,4.9072,4.9168,4.917,4.9172,0,0,0,0,0,0,4.9102,4.9105,4.9121,4.911,4.9111,4.9094,4.9102,4.9098,4.9101,4.9086,4.9082,4.9085,4.9073,4.9074,4.9099,4.9123,4.9072,4.9073,4.9166,4.9168,4.9171,4.9221,0,0,0,0,0,0,4.9101,4.9105,4.9121,4.9111,4.9112,4.9145,4.9103,4.9099,4.9103,4.9098,4.9091,4.9088,4.9072,4.9098,4.9101,4.9124,4.9075,4.9163,4.9167,4.917,4.9217,4.9225,4.9232,0,0,0,0,0,4.9101,4.9136,4.9122,4.9124,4.9132,4.9146,4.9147,4.9127,4.9105,4.9121,4.9111,4.9088,4.9121,4.9101,4.9104,4.9128,4.9162,4.9166,4.917,4.9214,4.9223,4.9232,0,0,0,0,0,0,4.9149,4.9134,4.9118,4.9151,4.915,4.9138,4.9158,4.9138,4.9144,4.9139,4.9115,4.9114,4.9142,4.9138,4.9116,4.9168,4.9137,4.9142,4.9169,4.9179,4.9186,4.9186,4.9076,0,0,0,0,0,4.9164,4.9177,4.9163,4.9193,4.9193,4.9176,4.9181,4.9166,4.9164,4.9164,4.9156,4.9155,4.9165,4.9172,4.918,4.9217,4.9214,4.9235,4.9242,4.9248,4.9252,4.927,4.9279,4.9185,4.9185,4.9185,0,0,4.9194,4.9187,4.9197,4.9202,4.92,4.9214,4.9176,4.9192,4.9202,4.9166,4.9189,4.9183,4.9181,4.9212,4.9225,4.9209,4.9278,4.9254,4.9259,4.9259,4.9275,4.9284,4.9292,4.9188,4.9187,4.9187,0,0,4.9255,4.9252,4.9276,4.9274,4.9271,4.9259,4.9265,4.9256,4.925,4.9273,4.9246,4.9258,4.9275,4.9274,4.9276,4.9337,4.9315,4.934,4.9378,4.9396,4.9403,4.941,4.943,4.9438,4.9345,4.9345,4.9345,0,4.9293,4.9312,4.9291,4.9308,4.9311,4.928,4.9304,4.9303,4.9303,4.9306,4.9288,4.9309,4.9305,4.9334,4.9349,4.9352,4.9358,4.934,4.9404,4.941,4.9416,4.9435,4.9443,4.9348,4.9347,4.9347,4.9347,0,4.9358,4.9372,4.9392,4.9391,4.9397,4.9418,4.9399,4.9407,4.9392,4.9382,4.9405,4.9399,4.9405,4.9412,4.9397,4.9439,4.9429,4.9408,4.9376,4.9428,4.9446,4.9453,4.9352,4.9351,4.935,4.9349,0,0,4.9449,4.9436,4.9444,4.9443,4.9437,4.9447,4.9466,4.9472,4.9479,4.948,4.9495,4.951,4.9491,4.9493,4.9478,4.9494,4.9541,4.9471,4.9471,4.9483,4.9585,4.96,4.9609,4.9527,4.9529,4.953,4.9585,0,4.9506,4.9538,4.9519,4.9554,4.9566,4.9536,4.9553,4.9551,4.9542,4.9551,4.9542,4.9552,4.9527,4.9527,4.9542,4.9532,4.9561,4.9528,4.954,4.9541,4.954,4.9618,4.9633,4.9685,4.9592,4.9593,4.9594,0,4.9578,4.9581,4.9616,4.9607,4.9611,4.9626,4.9629,4.9639,4.9636,4.9628,4.9631,4.9612,4.963,4.96,4.9624,4.9602,4.9606,4.9603,4.9604,4.9603,4.9569,4.9618,4.9702,4.9709,4.9605,4.9604,4.9603,0,4.9638,4.9652,4.9674,4.9675,4.9665,4.9676,4.9672,4.9668,4.9672,4.9675,4.9678,4.9683,4.9686,4.9691,4.9674,4.9653,4.97,4.9668,4.9693,4.9694,4.9703,4.9703,4.9788,4.9709,4.9709,4.9708,4.9708,0,4.9704,4.9726,4.9701,4.9715,4.9739,4.9718,4.9742,4.9736,4.9732,4.9744,4.9719,4.9731,4.9708,4.9718,4.9705,4.9726,4.9728,4.9722,4.9718,4.9723,4.9724,4.9725,4.972,4.9711,4.971,4.971,4.9709,0,4.9775,4.9759,4.9782,4.977,4.9768,4.9786,4.9776,4.9789,4.9778,4.9794,4.9796,4.978,4.979,4.9774,4.9782,4.9773,4.9802,4.9794,4.9803,4.98,4.9825,4.9822,4.9912,4.9923,4.9839,4.984,4.984,0,4.9817,4.9833,4.9824,4.9829,4.9827,4.9837,4.9841,4.9821,4.9826,4.9824,4.9836,4.9844,4.9848,4.9866,4.9855,4.9861,4.9851,4.9882,4.9852,4.9856,4.985,4.9848,4.9849,4.9888,4.9889,4.989,4.989,0,4.9893,4.9884,4.989,4.9894,4.9899,4.9901,4.9902,4.9908,4.9887,4.9894,4.9903,4.9907,4.9915,4.9922,4.9926,4.9922,4.9903,4.99,4.9906,4.9911,4.9915,4.9912,4.9818,4.9898,4.9897,4.9897,4.9896,4.9896,4.9949,4.9962,4.9957,4.9965,4.9963,4.9963,4.9974,4.9965,4.9972,4.9976,4.9964,4.9976,4.9973,4.9975,4.9973,4.9983,4.9969,4.9978,4.998,4.9982,4.9985,4.9915,4.9983,4.9983,4.9983,4.9983,4.9982,0,5.0022,5.0017,5.0025,5.0025,5.0032,5.0013,5.0012,5.0018,5.0029,5.0027,5.0032,5.0043,5.005,5.004,5.0045,5.0055,5.0046,5.0057,5.0055,5.0054,4.9998,4.9991,5.0064,5.0064,5.0064,5.0064,5.0064,5.0064,5.0061,5.0081,5.0072,5.009,5.0085,5.0096,5.0097,5.0098,5.0096,5.0108,5.0114,5.0107,5.0102,5.0107,5.0113,5.0109,5.0112,5.0126,5.0119,5.0066,5.0058,5.0051,5.0045,5.0127,5.0127,5.0175,5.0175,5.0176]}]]